24h Messdaten per 27.02.2020 um 04:23:02

Datum Zeit Luftdruck Temp Balkon Feuchte Balkon Temp Strasse Feuchte Strasse Wind km/h Wind Boe Wind aus (Grad) Regen l/15min Licht Lux Sonne h/Monat
27.02.20 04:23:02 995 0.8 64 0.0
27.02.20 04:18:02 995 0.7 65 0.0
27.02.20 04:13:02 995 0.6 66 0.0
27.02.20 04:08:02 995 0.6 67 0.0
27.02.20 04:03:02 0.6 67 0.0
27.02.20 03:58:02 995 0.6 67 0.0
27.02.20 03:52:02 996 0.5 68 0.0
27.02.20 03:47:02 996 0.5 67 0.0
27.02.20 03:42:02 996 0.5 67 0.7
27.02.20 03:37:01 996 0.5 66 0.0
27.02.20 03:32:01 996 0.3 65 0.0
27.02.20 03:27:01 996 0.4 64 4.3 5.4 112.5 0.0
27.02.20 03:22:02 996 0.3 62 4.3 4.7 0 0.0
27.02.20 03:17:02 996 0.5 60 3.2 6.1 112.5 0.0
27.02.20 03:12:02 996 1.0 58 2.9 5.8 45 0.0
27.02.20 03:07:02 996 1.1 58 2.9 3.2 22.5 0.0
27.02.20 03:02:02 996 1.1 57 3.6 2.9 315 0.0
27.02.20 02:57:02 996 1.1 57 3.2 9.7 67.5 0.0
27.02.20 02:52:01 1.1 58 2.9 5.8 67.5 0.0
27.02.20 02:47:01 996 1.1 57 2.9 6.1 112.5 0.0
27.02.20 02:42:01 996 1.1 57 2.5 2.2 157.5 0.0
27.02.20 02:37:00 996 1.2 58 2.2 2.5 112.5 0.0
27.02.20 02:32:00 996 1.1 58 2.9 3.6 135 0.0
27.02.20 02:27:00 996 0.9 58 4.0 5.4 112.5 0.0
27.02.20 02:22:01 996 1.0 58 4.7 7.2 157.5 0.0
27.02.20 02:17:01 0.8 58 5.0 5.4 22.5 0.0
27.02.20 02:12:01 996 1.0 59 5.0 9.0 112.5 0.0
27.02.20 02:07:00 996 1.0 60 5.0 2.5 135 0.0
27.02.20 02:02:00 996 0.9 61 5.8 12.6 135 0.0
27.02.20 01:57:00 996 5.0 4.0 67.5 0.0
27.02.20 01:52:01 996 0.6 60 4.7 8.3 315 0.0
27.02.20 01:47:01 996 1.0 60 4.3 6.1 135 0.0
27.02.20 01:42:01 0.9 61 4.0 7.6 90 0.0
27.02.20 01:37:01 996 0.7 59 2.9 5.8 135 0.0
27.02.20 01:32:01 996 0.9 59 2.5 5.0 112.5 0.0
27.02.20 01:27:01 996 1.1 59 4.0 1.8 135 0.0
27.02.20 01:22:01 996 1.2 60 4.7 7.2 90 0.0
27.02.20 01:17:01 996 1.1 60 4.3 6.1 157.5 0.0
27.02.20 01:12:01 996 1.0 61 3.6 4.3 112.5 0.0
27.02.20 01:07:00 996 1.1 61 3.2 0.0 22.5 0.0
27.02.20 01:02:00 996 1.0 61 2.9 2.2 202.5 0.0
27.02.20 00:57:00 996 1.0 62 2.5 5.8 112.5 0.0
27.02.20 00:52:01 996 1.0 63 2.9 3.2 112.5 0.0
27.02.20 00:47:01 996 1.0 65 2.5 3.6 90 0.0
27.02.20 00:42:01 996 0.7 65 2.5 8.6 135 0.0
27.02.20 00:37:01 996 0.9 66 2.5 9.0 225 0.0
27.02.20 00:32:01 996 0.6 65 2.5 4.3 135 0.0
27.02.20 00:27:01 996 0.7 65 3.2 8.6 112.5 0.0
27.02.20 00:22:01 996 0.7 65 2.9 3.2 90 0.0
27.02.20 00:17:01 996 0.3 64 2.9 5.4 270 0.0
27.02.20 00:12:01 996 0.3 61 2.5 2.9 157.5 0.0
27.02.20 00:07:00 996 1.0 63 2.2 2.5 67.5 0.0
27.02.20 00:02:00 996 1.1 63 2.9 1.4 135 0.0
26.02.20 23:57:00 996 1.1 64 4.0 2.5 67.5 0.7
26.02.20 23:52:02 996 1.1 64 4.0 4.3 67.5 0.0
26.02.20 23:47:02 996 1.0 66 2.9 6.1 45 0.0
26.02.20 23:42:01 996 1.0 67 2.9 8.3 67.5 0.0
26.02.20 23:37:01 996 0.8 68 2.5 2.5 67.5 0.0
26.02.20 23:32:01 996 0.7 68 2.9 5.0 247.5 0.0
26.02.20 23:27:01 997 0.3 66 1.8 3.2 22.5 0.0
26.02.20 23:22:01 997 0.5 66 0.7 4.7 45 0.0
26.02.20 23:17:01 997 0.5 64 0.4 0.0 22.5 0.0
26.02.20 23:12:01 997 0.7 65 1.4 0.0 112.5 0.0
26.02.20 23:07:01 997 0.8 64 3.2 9.0 90 0.0
26.02.20 23:02:01 997 3.6 0.0 90 0.0
26.02.20 22:57:01 996 0.8 63 4.7 3.6 22.5 0.0
26.02.20 22:52:01 996 0.8 62 4.7 4.7 135 0.0
26.02.20 22:47:01 996 1.0 60 4.0 9.4 45 0.0
26.02.20 22:42:01 996 1.1 60 2.5 2.2 45 0.0
26.02.20 22:37:01 996 1.2 58 1.1 2.9 67.5 0.0
26.02.20 22:32:01 996 1.4 55 0.4 2.2 45 0.0
26.02.20 22:27:01 996 1.4 54 0.4 0.0 135 0.0
26.02.20 22:22:01 996 1.6 54 0.4 0.0 112.5 0.0
26.02.20 22:17:01 996 1.6 54 0.7 0.0 90 0.0
26.02.20 22:12:01 996 1.6 54 0.7 1.8 67.5 0.0
26.02.20 22:07:01 996 1.6 54 1.4 4.3 90 0.0
26.02.20 22:02:01 996 1.6 54 2.2 0.0 337.5 0.0
26.02.20 21:57:01 996 1.4 55 3.2 3.6 157.5 0.0
26.02.20 21:52:01 996 1.4 55 4.0 3.2 135 0.0
26.02.20 21:47:01 996 1.3 55 4.7 5.0 90 0.0
26.02.20 21:42:01 996 4.3 5.8 22.5 0.0
26.02.20 21:37:01 996 1.4 55 2.2 4.7 67.5 0.0
26.02.20 21:32:01 996 1.4 55 1.4 0.0 67.5 0.0
26.02.20 21:27:01 996 1.3 55 1.8 0.0 337.5 0.0
26.02.20 21:22:01 996 1.4 56 2.5 5.8 135 0.0
26.02.20 21:17:01 996 1.4 56 2.9 5.4 90 0.0
26.02.20 21:12:01 996 1.2 55 4.3 3.2 67.5 0.0
26.02.20 21:07:02 996 3.6 2.9 45 0.0
26.02.20 21:02:02 996 1.2 54 4.0 8.6 90 0.0
26.02.20 20:57:01 1.4 54 4.0 2.9 135 0.0
26.02.20 20:52:01 996 1.5 54 3.6 4.3 157.5 0.0
26.02.20 20:47:01 996 1.5 54 3.2 7.2 112.5 0.0
26.02.20 20:42:01 996 1.5 54 3.2 5.0 112.5 0.0
26.02.20 20:37:01 996 1.5 54 3.2 4.7 67.5 0.0
26.02.20 20:32:01 996 1.4 55 3.6 6.1 112.5 0.0
26.02.20 20:27:01 996 1.3 56 3.6 7.6 112.5 0.0
26.02.20 20:22:01 996 1.4 56 3.6 4.7 90 0.0
26.02.20 20:17:01 996 3.2 3.2 90 0.0
26.02.20 20:12:01 996 1.0 57 2.9 4.3 112.5 0.0
26.02.20 20:07:01 996 1.0 58 4.3 1.4 135 0.0
26.02.20 20:02:01 995 0.8 58 4.7 3.6 67.5 0.0
26.02.20 19:57:01 995 0.8 56 3.6 8.3 135 0.0
26.02.20 19:52:01 995 1.1 56 4.0 4.7 67.5 0.0
26.02.20 19:47:01 995 1.0 55 4.3 6.8 112.5 0.0
26.02.20 19:42:01 995 1.3 56 5.0 4.3 135 0.0
26.02.20 19:37:01 995 1.4 55 5.0 7.6 112.5 0.0
26.02.20 19:32:01 995 1.5 54 4.7 6.8 292.5 0.0
26.02.20 19:27:01 995 1.4 55 4.0 2.5 135 0.0
26.02.20 19:22:01 995 1.3 57 3.6 5.0 112.5 0.0
26.02.20 19:17:01 995 1.2 57 3.6 2.9 45 0.0
26.02.20 19:12:01 995 1.1 57 4.0 1.8 112.5 0.0
26.02.20 19:07:01 995 1.2 57 3.2 3.2 90 0.0
26.02.20 19:02:01 995 1.2 58 3.2 6.1 112.5 0.0
26.02.20 18:57:01 995 1.0 57 4.0 5.0 67.5 0.0
26.02.20 18:52:01 995 1.3 57 4.7 4.7 135 0.0
26.02.20 18:47:01 994 1.4 56 5.0 6.1 135 0.0
26.02.20 18:42:01 994 1.5 54 5.4 5.4 112.5 0.0
26.02.20 18:37:01 994 1.6 53 5.0 4.3 112.5 0.0
26.02.20 18:32:01 994 1.9 52 4.7 6.5 67.5 0.0
26.02.20 18:27:01 994 1.8 52 4.7 10.8 90 0.0
26.02.20 18:22:01 994 1.7 51 4.7 6.5 112.5 0.0
26.02.20 18:17:01 994 1.8 51 4.7 6.8 45 0.0
26.02.20 18:12:01 994 1.6 50 4.7 10.8 45 0.0
26.02.20 18:07:01 994 1.7 50 3.6 2.9 67.5 0.0
26.02.20 18:02:01 994 1.7 50 3.2 4.0 225 0.0
26.02.20 17:57:01 994 1.9 50 3.2 2.5 45 0.0
26.02.20 17:52:01 994 1.8 50 3.6 3.2 180 0.0
26.02.20 17:47:01 994 1.9 49 4.0 6.5 67.5 0.0
26.02.20 17:42:01 993 1.8 49 4.3 11.5 67.5 0.0
26.02.20 17:37:01 993 2.0 49 5.0 6.8 90 0.0
26.02.20 17:32:01 993 1.9 49 5.8 7.6 112.5 0.0
26.02.20 17:27:01 993 2.1 48 5.0 10.4 112.5 0.0
26.02.20 17:22:01 993 2.2 48 4.7 6.8 22.5 0.0
26.02.20 17:17:01 993 2.2 48 5.0 5.4 67.5 0.0
26.02.20 17:12:01 993 6.1 10.4 67.5 0.0
26.02.20 17:07:01 993 2.2 48 5.4 9.0 90 0.0
26.02.20 17:02:01 993 2.2 48 5.0 7.2 90 0.0
26.02.20 16:57:01 993 2.2 48 4.3 5.0 315 0.0
26.02.20 16:52:01 993 2.3 47 4.3 7.2 90 0.0
26.02.20 16:47:01 993 2.4 47 4.7 4.0 135 0.0
26.02.20 16:42:01 993 2.4 47 5.0 7.6 112.5 0.0
26.02.20 16:37:01 993 2.5 47 4.7 5.4 112.5 0.0
26.02.20 16:32:01 993 2.4 47 5.0 8.3 67.5 0.0
26.02.20 16:27:01 992 2.4 47 6.1 5.0 90 0.0
26.02.20 16:22:01 992 2.4 47 6.1 8.6 135 0.0
26.02.20 16:17:01 992 2.4 47 6.1 6.5 90 0.0
26.02.20 16:12:01 992 2.5 46 5.0 7.9 67.5 0.0
26.02.20 16:07:01 992 2.6 46 4.3 6.1 135 0.0
26.02.20 16:02:01 992 2.7 46 5.0 9.0 90 0.0
26.02.20 15:57:01 992 2.7 45 4.7 7.9 112.5 0.0
26.02.20 15:52:01 992 3.0 45 4.7 14.4 90 0.0
26.02.20 15:47:01 992 3.2 45 4.7 5.0 45 0.0
26.02.20 15:42:01 992 3.0 44 6.1 4.3 180 0.0
26.02.20 15:37:01 992 3.2 43 6.1 5.8 22.5 0.0
26.02.20 15:32:01 992 3.5 42 6.1 12.2 22.5 0.0
26.02.20 15:27:01 992 3.3 42 6.1 10.1 45 0.0
26.02.20 15:22:02 992 5.4 6.8 157.5 0.0
26.02.20 15:17:02 992 3.5 43 4.7 7.6 337.5 0.0
26.02.20 15:12:02 991 3.8 42 4.7 9.7 112.5 0.0
26.02.20 15:07:01 991 4.2 41 5.0 6.8 112.5 0.0
26.02.20 15:02:01 991 4.4 40 5.8 8.6 135 0.0
26.02.20 14:57:01 991 3.7 42 4.7 5.0 67.5 0.0
26.02.20 14:52:01 991 4.3 9.4 45 0.0
26.02.20 14:47:01 991 3.5 46 5.8 11.9 112.5 0.0
26.02.20 14:42:01 991 3.5 47 5.8 6.8 135 0.0
26.02.20 14:37:01 991 2.8 47 5.4 5.8 112.5 0.0
26.02.20 14:32:01 991 3.0 45 5.0 9.4 0 0.0
26.02.20 14:27:01 991 3.5 45 5.0 12.2 135 0.0
26.02.20 14:22:01 991 2.8 48 5.8 6.5 135 0.0
26.02.20 14:17:01 991 2.5 48 5.8 10.8 135 0.0
26.02.20 14:12:01 991 2.9 46 5.8 10.1 112.5 0.0
26.02.20 14:07:01 991 3.0 43 5.8 18.0 22.5 0.0
26.02.20 14:02:01 991 5.0 40 4.7 5.4 135 0.0
26.02.20 13:57:01 991 4.3 41 5.0 2.9 135 0.0
26.02.20 13:52:01 991 3.4 44 5.4 4.3 67.5 0.0
26.02.20 13:47:01 991 5.4 7.9 180 0.0
26.02.20 13:42:01 990 4.8 43 5.4 10.8 112.5 0.0
26.02.20 13:37:01 990 3.5 42 5.4 6.1 67.5 0.0
26.02.20 13:32:01 990 4.5 42 5.0 3.2 315 0.0
26.02.20 13:27:01 990 4.1 42 5.4 4.0 90 0.0
26.02.20 13:22:01 990 3.5 44 5.4 4.0 112.5 0.0
26.02.20 13:17:01 990 3.3 44 6.1 10.8 135 0.0
26.02.20 13:12:01 990 3.5 46 4.7 4.7 67.5 0.0
26.02.20 13:07:02 990 3.0 47 4.0 9.0 67.5 0.0
26.02.20 13:02:02 990 3.3 47 4.7 4.0 112.5 0.0
26.02.20 12:57:01 990 2.6 47 5.0 5.8 112.5 0.0
26.02.20 12:52:01 990 2.5 46 5.4 9.0 135 0.0
26.02.20 12:47:01 990 2.4 48 5.8 0.0 67.5 0.0
26.02.20 12:42:01 990 5.4 9.0 90 0.0
26.02.20 12:37:01 990 2.4 47 4.7 4.7 90 0.0
26.02.20 12:32:01 990 2.3 47 5.0 5.8 112.5 0.0
26.02.20 12:27:01 990 2.6 48 5.8 6.1 135 0.0
26.02.20 12:22:02 990 1.9 49 5.4 7.9 67.5 0.0
26.02.20 12:17:01 990 2.1 49 4.7 5.0 247.5 0.0
26.02.20 12:12:01 989 2.5 48 4.7 5.0 22.5 0.0
26.02.20 12:07:01 989 2.5 48 4.7 7.6 67.5 0.0
26.02.20 12:02:01 989 2.8 50 4.7 3.2 67.5 0.0
26.02.20 11:57:01 989 1.9 49 5.0 6.1 22.5 0.0
26.02.20 11:52:01 989 2.3 49 5.0 10.4 22.5 0.0
26.02.20 11:47:01 989 2.2 49 5.0 7.6 270 0.0
26.02.20 11:42:01 989 1.9 49 4.7 4.7 337.5 0.0
26.02.20 11:37:01 989 4.7 6.1 67.5 0.0
26.02.20 11:32:01 989 2.0 49 5.0 3.6 67.5 0.0
26.02.20 11:27:01 989 2.1 49 6.1 4.3 225 0.0
26.02.20 11:22:01 989 1.9 50 5.4 6.1 67.5 0.0
26.02.20 11:17:01 989 1.7 53 5.0 18.7 90 0.0
26.02.20 11:12:01 989 1.7 53 5.4 4.0 315 0.0
26.02.20 11:07:02 989 1.9 54 6.5 16.9 112.5 0.0
26.02.20 11:02:02 988 1.5 52 6.1 14.0 135 0.0
26.02.20 10:57:01 988 1.5 51 5.0 6.1 90 0.0
26.02.20 10:52:02 988 1.7 53 5.8 8.6 45 0.0
26.02.20 10:47:02 988 1.3 55 5.4 7.2 90 0.0
26.02.20 10:42:02 988 1.2 54 4.7 8.3 90 0.0
26.02.20 10:37:01 988 1.2 55 6.1 3.6 0 0.0
26.02.20 10:32:01 988 1.3 55 5.4 4.3 135 0.0
26.02.20 10:27:01 988 1.1 54 5.8 3.6 22.5 0.0
26.02.20 10:22:02 988 1.2 55 6.5 4.3 135 0.0
26.02.20 10:17:02 988 1.3 56 4.7 21.2 112.5 0.0
26.02.20 10:12:02 988 1.0 57 4.7 9.0 112.5 0.0
26.02.20 10:07:02 987 1.0 57 5.8 7.6 45 0.0
26.02.20 10:02:02 987 1.1 58 5.8 4.3 135 0.0
26.02.20 09:57:02 987 1.0 58 5.4 8.3 67.5 0.0
26.02.20 09:52:01 987 1.0 58 5.4 4.7 90 0.0
26.02.20 09:47:01 987 1.0 59 6.1 8.3 90 0.0
26.02.20 09:42:01 987 0.8 60 6.1 7.9 22.5 0.0
26.02.20 09:37:02 987 0.9 62 5.8 9.7 135 0.0
26.02.20 09:32:02 987 0.6 63 6.5 5.0 67.5 0.0
26.02.20 09:27:02 986 0.7 66 6.5 5.8 135 0.0
26.02.20 09:22:01 986 0.6 67 6.5 8.6 45 0.0
26.02.20 09:17:01 986 0.4 67 6.1 12.2 90 0.0
26.02.20 09:12:01 986 0.3 68 5.4 7.9 90 0.0
26.02.20 09:07:01 986 0.3 68 5.4 10.8 45 0.0
26.02.20 09:02:01 986 0.2 68 5.8 5.8 45 0.0
26.02.20 08:57:01 986 0.1 69 6.1 8.3 112.5 0.0
26.02.20 08:52:01 986 0.1 69 6.1 10.8 270 0.7
26.02.20 08:47:01 986 0.1 70 6.5 10.1 112.5 0.0
26.02.20 08:42:01 986 0.0 70 7.2 11.2 112.5 0.0
26.02.20 08:37:02 986 -0.1 70 6.1 15.8 90 0.0
26.02.20 08:32:02 986 4.3 4.7 22.5 0.0
26.02.20 08:27:02 986 -0.2 70 4.3 4.3 90 0.0
26.02.20 08:22:02 986 -0.1 70 4.7 3.6 337.5 0.7
26.02.20 08:17:02 985 -0.1 71 5.4 6.8 67.5 0.0
26.02.20 08:12:02 985 -0.1 71 5.8 6.8 112.5 0.0
26.02.20 08:07:01 985 -0.2 72 7.6 8.3 337.5 0.0
26.02.20 08:02:01 985 -0.3 72 7.6 12.6 112.5 0.0
26.02.20 07:57:01 985 -0.3 72 6.1 9.7 22.5 0.0
26.02.20 07:52:02 985 -0.4 71 5.0 13.7 135 0.7
26.02.20 07:47:02 985 -0.3 71 5.0 6.1 67.5 0.0
26.02.20 07:42:02 985 -0.3 71 6.1 2.9 202.5 0.0
26.02.20 07:37:01 985 -0.3 70 6.5 10.1 67.5 0.0
26.02.20 07:32:01 985 -0.3 67 5.4 9.0 135 0.0
26.02.20 07:27:01 984 4.7 3.6 112.5 0.0
26.02.20 07:22:02 984 0.1 64 4.7 5.4 157.5 0.0
26.02.20 07:17:02 984 0.3 62 5.4 9.0 67.5 0.0
26.02.20 07:12:02 984 0.5 61 5.4 7.6 90 0.7
26.02.20 07:07:01 984 0.6 60 5.8 6.8 90 0.0
26.02.20 07:02:01 984 0.9 58 5.8 10.8 135 0.0
26.02.20 06:57:01 984 1.0 57 4.7 5.4 22.5 0.0
26.02.20 06:52:04 984 1.1 56 5.0 6.8 67.5 0.0
26.02.20 06:47:04 983 1.1 55 6.1 8.6 157.5 0.0
26.02.20 06:42:03 983 1.1 54 6.1 5.0 90 0.0
26.02.20 06:37:03 983 1.1 54 5.8 7.9 112.5 0.0
26.02.20 06:32:03 983 1.2 53 5.4 6.8 112.5 0.0
26.02.20 06:27:03 983 1.3 53 4.3 6.8 67.5 0.0
26.02.20 06:22:02 983 1.4 51 4.7 7.6 45 0.0
26.02.20 06:17:02 983 1.4 51 6.5 2.9 90 0.0
26.02.20 06:12:02 983 1.4 50 6.8 10.8 90 0.0
26.02.20 06:07:02 983 1.6 48 6.1 8.3 315 0.0
26.02.20 06:02:02 983 1.7 46 6.5 5.8 22.5 0.0
26.02.20 05:57:02 983 1.9 45 6.5 22.7 22.5 0.0
26.02.20 05:51:02 983 2.3 42 6.5 7.6 135 0.0
26.02.20 05:46:02 983 2.3 42 7.2 17.3 135 0.0
26.02.20 05:41:02 983 2.3 42 7.2 4.3 90 0.0
26.02.20 05:36:02 983 2.4 41 6.5 16.6 112.5 0.0
26.02.20 05:31:02 983 2.3 42 6.1 11.2 112.5 0.0
26.02.20 05:26:02 983 2.4 40 6.1 1.8 67.5 0.0
26.02.20 05:21:02 983 2.4 41 6.1 13.0 67.5 0.0
26.02.20 05:16:02 983 2.4 41 6.1 3.2 337.5 0.0
26.02.20 05:11:02 983 2.4 41 6.5 14.8 112.5 0.0
26.02.20 05:06:02 2.4 41 7.2 17.3 112.5 0.0
26.02.20 05:01:02 983 2.4 40 7.2 17.6 337.5 0.0
26.02.20 04:56:02 983 2.5 40 6.8 7.6 112.5 0.0
26.02.20 04:51:02 983 2.4 40 7.2 10.8 112.5 0.0
26.02.20 04:46:02 983 2.3 42 7.6 7.6 157.5 0.0
26.02.20 04:41:01 983 2.3 42 7.6 11.2 157.5 0.0
26.02.20 04:36:02 983 2.2 43 8.6 15.1 45 0.0
26.02.20 04:31:02 983 2.3 43 8.6 18.7 247.5 0.0
26.02.20 04:26:02 983 2.3 43 7.6 11.9 22.5 0.0
Index
© 2002-2012 Thomas Dreßler
Alle Rechte vorbehalten
letzte Scriptänderung 12.11.2012